This demonstration page uses our WeatherBlox Daily Observations layout. Learn more.

Hourly Observations for December 26, 2017

Temp ( °F °C ) Dew Point ( °F °C ) Humidity (%) Winds ( mph kmh ) Pressure ( in mb ) Visibility ( mi km ) Precip ( " mm )
12:54 am 00:54 Cloudy 5 -15 0 -17.8 79 79 N 8 13 30.64 1038 10 16.0934 0 0
1:54 am 01:54 Cloudy 5 -15 -2 -18.9 72 72 N 10 17 30.65 1038 10 16.0934 0 0
2:54 am 02:54 Cloudy 4 -15.6 -3 -19.4 73 73 N 9 15 30.67 1039 9 14.48406 0 0.0254
3:54 am 03:54 Cloudy with Light Snow 4 -15.6 -3 -19.4 73 73 N 9 15 30.67 1039 3 4.82802 0 0.0254
4:16 am 04:16 Cloudy 3 -16.1 -3 -19.4 76 76 N 6 9 30.74 1041 9 14.48406 0 0.0254
4:54 am 04:54 Cloudy 1 -17.2 -5 -20.6 75 75 NNE 5 7 30.67 1039 10 16.0934 0 0.0254
5:54 am 05:54 Cloudy 3 -16.1 -3 -19.4 76 76 N 3 6 30.69 1039 10 16.0934 0 0
6:54 am 06:54 Cloudy 4 -15.6 -3 -19.4 73 73 N 7 11 30.7 1040 10 16.0934 0 0
7:54 am 07:54 Cloudy 4 -15.6 -2 -18.9 76 76 Calm 30.73 1041 10 16.0934 0 0
8:54 am 08:54 Cloudy 4 -15.6 -4 -20 69 69 NW 3 6 30.74 1041 10 16.0934 0 0
9:54 am 09:54 Sunny 5 -15 -4 -20 66 66 N 7 11 30.77 1042 10 16.0934 0 0
10:54 am 10:54 Sunny 7 -13.9 -4 -20 60 60 N 6 9 30.77 1042 10 16.0934 0 0
11:54 am 11:54 Sunny 8 -13.3 -3 -19.4 60 60 N 9 15 30.76 1042 10 16.0934 0 0
12:54 pm 12:54 Sunny 8 -13.3 -5 -20.6 55 55 NNW 6 9 30.73 1041 10 16.0934 0 0
1:54 pm 13:54 Sunny 8 -13.3 -5 -20.6 55 55 N 9 15 30.73 1041 10 16.0934 0 0
2:54 pm 14:54 Sunny 9 -12.8 -4 -20 55 55 NNW 10 17 30.72 1040 10 16.0934 0 0
3:54 pm 15:54 Sunny 8 -13.3 -5 -20.6 55 55 NNW 8 13 30.73 1041 10 16.0934 0 0
4:54 pm 16:54 Sunny 5 -15 -6 -21.1 60 60 NNW 6 9 30.76 1042 10 16.0934 0 0
5:54 pm 17:54 Clear 2 -16.7 -7 -21.7 65 65 NNW 6 9 30.78 1042 10 16.0934 0 0
6:54 pm 18:54 Clear -1 -18.3 -8 -22.2 72 72 Calm 30.79 1043 10 16.0934 0 0
7:54 pm 19:54 Clear -5 -20.6 -11 -23.9 75 75 Calm 30.8 1043 10 16.0934 0 0
8:54 pm 20:54 Clear -7 -21.7 -12 -24.4 79 79 Calm 30.81 1044 10 16.0934 0 0
9:54 pm 21:54 Clear -10 -23.3 -14 -25.6 81 81 N 5 7 30.83 1044 10 16.0934 0 0
10:54 pm 22:54 Clear -10 -23.3 -14 -25.6 81 81 Calm 30.84 1044 10 16.0934 0 0
11:54 pm 23:54 Clear -8 -22.2 -12 -24.4 82 82 Calm 30.85 1045 10 16.0934 0 0

Powered by AerisWeather